Theta_e
334 333 333 332 332 332 331 331 330 328 326 327 326 326 327 328 328 328 328 328 328 327 327 327 327 327 326 326 326 326 324 325 325 325 327 329 330 330 329 328 330 332 332
331 331 330 330 330 331 331 330 328 326 326 326 327 327 327 327 327 327 328 328 328 327 328 327 328 328 327 327 327 327 326 325 325 326 324 323 324 327 327 327 327 325 323
330 330 330 329 329 328 328 327 326 326 327 327 326 326 329 328 328 328 328 329 328 328 328 328 328 328 327 327 326 326 325 325 325 324 321 320 320 321 321 320 321 319 321
330 329 329 328 328 329 327 327 327 327 326 326 328 328 328 329 329 329 329 329 329 328 328 328 328 328 327 327 325 325 324 324 324 321 319 319 319 319 319 319 318 317 317
329 329 329 329 328 328 327 327 326 326 325 328 329 329 328 329 328 329 328 328 328 328 329 329 328 328 327 326 324 324 324 323 322 321 320 318 318 318 318 317 317 317 317
330 330 330 330 329 328 327 326 326 326 326 329 329 328 326 329 329 329 328 329 327 328 328 328 329 326 325 324 324 324 324 322 321 320 319 319 318 317 317 317 316 316 316
330 330 330 330 329 327 327 326 326 326 328 329 328 327 323 328 329 329 328 328 327 327 326 326 325 324 324 323 323 323 323 322 322 320 320 319 319 318 317 317 316 317 316
331 331 331 329 328 327 325 326 326 326 328 329 328 324 324 329 330 329 328 327 327 327 327 326 324 324 323 323 323 323 323 322 320 320 320 319 318 318 318 317 317 316 316
331 331 331 328 327 327 327 326 326 327 328 328 326 324 324 329 330 328 327 327 327 326 326 325 324 323 322 323 323 322 321 321 321 320 319 319 318 318 318 317 317 316 314
331 331 329 328 327 326 326 326 327 327 328 327 325 325 325 330 330 328 327 326 325 325 325 324 324 322 322 323 322 321 321 320 320 319 319 319 319 319 318 318 317 316 314
331 330 329 328 326 326 326 327 327 327 327 327 326 325 326 329 330 328 328 326 324 324 323 322 322 322 323 322 322 322 321 321 320 319 319 319 319 319 318 318 317 316 315
330 329 329 328 327 327 327 327 327 327 327 326 326 324 326 328 330 329 328 327 324 323 323 323 322 322 323 323 323 323 322 322 321 320 320 320 319 318 318 318 319 315 314
329 329 330 328 327 327 328 328 328 327 327 326 325 325 326 328 330 329 327 326 326 324 323 322 322 323 323 323 323 323 323 322 322 320 319 319 320 320 319 318 317 315 314
329 329 329 328 328 328 328 328 328 328 326 326 325 324 325 327 327 328 327 326 326 325 323 323 323 323 323 323 322 322 322 322 322 321 320 321 320 319 319 318 318 317 316
328 328 329 329 328 328 328 329 328 328 328 328 327 325 326 326 328 328 327 326 326 325 324 323 323 323 322 322 322 322 322 321 321 321 321 320 319 319 319 321 320 317 317
327 328 329 329 328 329 329 328 329 329 328 328 328 327 326 327 329 328 326 326 326 326 323 322 323 322 321 321 321 322 322 322 322 321 321 319 317 318 318 321 321 322 322
327 328 328 329 329 329 328 327 326 327 329 328 328 328 326 327 328 328 326 326 325 325 324 323 323 323 322 322 321 322 322 322 322 321 319 315 315 317 320 321 323 323 323
327 328 328 329 330 329 327 327 327 325 323 326 328 328 327 327 328 328 326 326 325 325 324 324 323 324 323 323 322 322 322 323 322 320 318 317 316 317 319 321 322 322 322
327 328 328 329 330 329 328 326 325 324 323 323 327 328 328 326 327 327 327 326 324 324 324 323 324 324 323 323 322 322 322 323 323 322 322 322 322 322 321 321 321 321 323
326 328 329 329 329 329 328 326 323 322 322 322 326 328 328 326 326 326 326 326 325 326 325 324 324 324 324 323 322 323 323 323 323 323 323 323 322 322 322 322 321 321 321
325 326 327 328 329 329 329 328 326 324 322 322 323 327 330 329 327 327 327 327 327 325 325 325 325 324 324 325 324 323 323 323 323 323 322 322 322 322 322 323 323 323 323
323 323 325 327 328 328 328 329 329 327 326 324 323 322 325 328 328 327 326 327 327 327 327 325 324 324 323 323 323 323 324 324 324 324 324 323 323 323 323 323 324 324 324
319 321 321 323 325 326 327 328 328 328 328 328 327 324 321 322 326 327 328 328 327 326 326 326 327 326 325 324 323 324 324 322 323 324 323 323 322 322 322 323 323 323 323
316 317 318 321 322 321 323 324 325 326 327 327 327 326 325 324 323 323 323 325 326 327 327 327 326 325 326 326 327 326 324 324 324 323 321 323 323 323 322 321 321 321 322
314 315 316 317 318 319 321 322 321 320 322 323 325 325 325 325 325 325 325 324 324 324 325 325 325 325 325 325 324 323 323 325 326 325 324 324 324 323 323 322 322 322 321
307 308 309 313 315 318 321 323 325 325 324 323 321 319 320 323 324 324 323 323 323 323 324 324 324 325 325 325 324 324 323 322 321 322 324 324 324 324 324 324 323 322 322
Wind_Speed
25 26 25 24 23 23 21 18 16 14 15 12 11 7 6 6 8 8 10 10 10 10 10 10 9 9 10 10 11 14 12 8 5 4 5 14 14 13 10 11 21 28 32
28 27 24 21 19 18 16 16 15 15 13 11 7 3 4 8 9 10 10 10 10 12 11 11 8 9 9 10 10 12 16 11 12 10 10 15 19 19 23 26 30 35 43
26 24 21 19 16 16 16 16 15 13 10 8 4 2 2 2 4 7 7 6 8 9 10 11 9 11 10 9 10 10 15 15 19 18 12 18 20 31 34 35 40 40 44
23 22 20 18 16 16 15 14 13 10 9 5 4 6 2 3 6 1 4 5 4 5 6 10 11 13 12 12 12 17 21 23 23 22 22 21 21 23 36 36 34 40 36
20 19 17 15 15 17 15 12 12 10 7 7 9 5 3 3 4 4 4 2 3 2 3 8 12 13 11 12 18 22 24 25 25 23 21 22 23 23 29 29 36 34 30
17 14 13 13 13 15 15 12 12 10 6 11 8 5 4 5 3 1 3 2 3 7 10 10 12 12 11 14 16 20 20 27 25 22 24 23 22 23 29 32 35 30 13
13 13 13 14 16 15 14 12 11 8 10 10 6 4 4 5 4 4 5 5 9 12 13 16 16 15 16 18 19 19 20 26 28 28 27 27 26 30 31 29 28 19 16
15 14 15 16 17 14 14 12 10 9 11 10 6 4 4 6 6 8 8 10 13 15 15 17 19 18 20 23 23 25 21 23 28 27 29 29 33 32 29 30 29 30 30
15 16 17 18 14 12 12 12 11 11 10 10 7 4 3 5 8 9 11 13 15 14 14 15 15 18 24 27 29 29 31 25 26 30 34 36 39 39 36 34 29 28 16
17 18 18 16 14 14 13 13 11 10 11 10 7 4 4 5 9 9 11 15 16 16 13 13 16 25 26 29 33 32 30 31 35 33 32 35 36 34 34 29 33 25 19
19 18 17 15 14 11 12 11 10 12 12 10 7 5 5 5 8 9 12 14 16 17 16 20 25 26 25 29 30 34 32 33 33 34 33 31 29 28 25 24 26 32 20
21 18 16 14 13 11 12 10 11 12 14 11 9 7 6 4 8 9 9 11 16 19 20 23 23 22 23 25 29 33 32 31 31 32 30 28 26 24 22 23 21 24 13
20 17 17 14 13 12 12 11 11 12 13 12 9 6 6 6 8 9 10 12 14 19 22 22 22 19 19 21 29 29 29 29 30 26 23 22 24 22 20 19 17 21 17
21 16 15 15 14 12 9 10 10 10 10 12 10 8 8 6 10 12 13 13 14 20 22 22 21 19 21 23 22 22 23 27 30 27 24 25 23 21 20 18 16 17 16
22 18 16 14 14 13 10 9 7 5 7 13 13 11 11 10 11 13 15 17 20 23 25 22 20 19 23 23 21 18 22 23 24 26 27 25 24 23 19 16 14 16 10
21 20 19 19 16 14 11 9 7 5 4 4 6 8 9 6 12 13 14 18 20 24 23 19 18 18 19 20 17 18 20 21 23 26 25 24 23 22 20 17 15 14 14
24 23 21 21 19 17 13 11 9 7 6 6 5 6 5 9 12 13 15 19 22 22 19 17 16 17 18 18 19 18 20 21 20 23 25 25 24 21 20 17 16 15 15
22 24 24 25 23 20 17 15 12 11 9 8 9 8 6 7 11 14 16 20 22 20 20 20 20 21 22 21 18 16 20 23 23 24 25 25 25 23 22 19 18 18 17
21 22 24 25 25 22 18 15 12 9 6 7 12 12 11 10 12 13 16 20 20 18 20 21 23 24 23 22 21 17 21 26 28 27 27 27 26 24 22 21 19 22 20
18 21 23 24 24 22 20 17 14 12 9 8 13 15 17 16 18 19 20 20 21 23 23 22 22 22 25 25 22 21 23 26 28 28 27 27 26 26 22 22 21 20 24
10 14 17 18 21 24 24 23 21 17 15 14 14 17 19 23 23 24 25 25 25 25 25 26 25 24 25 25 24 23 23 23 26 26 25 26 26 24 27 25 23 22 23
8 7 13 18 18 18 22 24 25 23 21 19 17 16 18 22 21 23 25 27 28 28 28 28 29 29 28 28 28 28 28 28 30 33 34 34 33 33 29 25 23 23 25
23 18 4 7 13 15 17 20 22 24 24 24 23 21 20 23 26 27 29 30 30 31 31 31 32 33 33 33 32 31 32 33 35 35 36 35 35 34 34 31 30 28 27
22 23 22 20 7 5 11 16 20 23 24 25 25 26 26 27 29 30 31 32 32 33 34 34 35 35 35 35 37 38 38 37 36 36 37 38 39 38 38 34 32 33 33
20 20 20 20 20 19 18 12 6 11 17 21 23 25 26 28 29 31 32 33 34 35 36 36 36 38 38 39 39 39 40 40 41 42 42 42 42 40 38 36 35 32 33
23 21 21 19 19 19 18 17 18 19 19 14 10 14 21 24 27 29 30 30 32 34 36 37 39 40 40 40 41 42 43 43 43 44 45 43 43 40 37 38 35 34 33
Wind_Direction
133 134 134 136 139 145 149 152 152 155 155 157 162 171 191 221 236 249 262 253 247 247 234 231 232 215 215 223 222 211 214 175 123 119 121 153 145 163 155 148 158 161 167
130 130 130 135 144 149 149 150 151 148 152 154 157 171 255 264 258 262 261 257 242 231 234 230 232 206 208 216 214 209 200 172 137 124 106 117 129 148 146 142 140 141 142
134 133 135 138 142 146 149 150 149 151 153 156 165 239 179 324 292 274 257 270 231 233 232 220 210 195 190 187 196 177 170 163 141 130 118 118 112 123 113 115 124 118 127
140 142 145 149 151 152 150 152 154 152 153 166 157 136 99 351 344 340 245 227 199 206 206 208 209 199 193 177 175 160 146 133 130 121 122 118 117 122 120 118 108 115 121
150 155 153 153 153 152 153 156 162 159 159 162 136 111 71 42 49 66 70 137 179 174 208 192 190 193 196 178 163 159 144 136 133 132 129 125 126 132 127 124 119 123 127
163 161 158 157 160 160 158 156 156 160 167 152 128 104 78 57 58 45 108 106 129 126 122 137 141 134 146 157 158 161 151 148 143 138 140 139 138 132 133 132 130 134 128
164 170 170 166 162 165 163 164 167 169 166 150 140 109 70 40 29 79 101 109 127 128 134 135 132 133 138 139 145 143 140 158 152 145 142 145 140 141 138 133 132 132 130
178 175 176 169 168 174 158 165 181 182 171 160 153 114 66 40 57 116 110 116 128 132 134 140 140 142 144 142 137 130 129 146 149 142 142 143 141 138 136 140 138 125 133
184 179 178 175 171 164 163 170 171 172 167 162 158 121 71 58 91 115 117 124 125 129 142 145 143 147 142 141 134 120 118 126 139 139 141 145 145 149 152 144 133 133 130
188 185 182 178 174 167 168 176 174 180 169 168 153 127 95 86 105 121 125 130 127 129 132 140 148 143 141 136 126 121 117 118 124 127 133 140 151 155 157 159 154 141 137
188 188 184 184 185 183 181 184 174 175 173 170 153 128 112 97 122 124 134 138 140 131 129 133 139 143 141 139 139 134 128 132 132 134 138 146 153 160 167 174 167 161 149
190 189 182 185 184 173 173 175 172 170 168 164 154 132 122 120 130 129 130 143 147 135 134 139 141 144 149 143 147 139 136 139 138 140 147 156 162 169 173 176 177 174 152
193 186 190 183 177 173 171 173 168 176 174 169 162 151 137 124 135 130 129 136 145 142 139 141 142 147 151 153 147 148 150 153 150 149 157 168 175 171 169 172 180 184 198
194 183 191 184 170 167 172 171 168 170 174 170 169 169 153 142 140 140 137 145 150 141 140 141 145 145 151 143 147 154 160 161 163 165 169 174 172 172 175 180 185 196 213
197 188 195 188 180 171 169 174 174 173 188 178 182 182 173 164 164 156 151 150 156 152 146 145 144 140 145 151 155 161 168 169 173 172 171 171 176 178 178 179 189 194 202
193 190 194 189 184 183 176 164 170 139 152 176 185 188 188 182 163 158 156 154 155 156 150 147 151 151 155 163 166 168 176 179 178 177 178 179 179 184 190 197 203 206 215
199 197 194 194 187 185 184 184 172 152 160 156 153 170 174 165 167 168 161 159 161 166 156 158 157 164 169 172 180 185 186 187 186 188 189 191 192 196 200 209 215 219 229
205 204 196 195 196 196 196 195 194 174 160 171 167 160 156 164 167 169 167 167 167 179 180 175 177 183 188 191 192 195 196 195 196 196 200 203 205 208 211 221 227 232 238
203 204 206 204 204 204 202 202 202 194 175 159 167 171 172 167 177 177 180 183 182 188 193 194 196 199 201 203 204 205 206 205 206 208 211 213 215 218 224 230 236 245 247
215 213 210 209 206 206 207 209 211 214 203 192 187 180 175 176 178 188 196 200 203 204 203 206 207 206 208 210 209 212 215 216 217 219 221 224 226 229 233 238 242 244 250
208 220 219 219 215 212 211 214 217 216 218 214 214 206 204 196 197 201 205 209 214 218 218 217 216 217 219 221 222 221 222 223 223 224 224 227 228 229 234 239 244 246 252
73 200 214 220 227 227 224 223 224 226 228 229 231 223 218 214 218 218 220 222 224 227 228 227 228 229 230 228 228 227 226 227 229 231 232 234 235 239 240 241 244 248 251
62 61 92 216 229 232 231 235 236 235 236 238 241 237 225 224 226 231 234 237 237 237 237 236 236 237 237 237 237 236 235 234 235 235 233 234 235 238 241 241 245 246 247
61 58 49 49 46 258 248 242 240 241 243 246 249 250 247 242 240 242 246 248 248 248 245 245 244 244 244 243 242 241 242 243 244 243 243 242 241 243 244 243 243 244 243
53 55 53 37 34 40 45 36 311 270 262 262 261 261 263 263 260 259 259 256 255 254 255 254 252 251 250 250 250 249 248 247 246 245 245 244 244 244 242 243 242 241 243
55 53 47 38 29 27 29 35 38 50 48 34 355 302 285 277 278 279 277 272 267 265 263 262 262 262 261 258 255 254 254 254 251 249 247 242 243 240 239 240 242 241 245